Location: Andrest
(43.3200°N, 0.0641°E)
Time: 17:15:35
(UTC+00:00)

USA 215 - Visible Passes

Search period start: 12 April 2021 00:00
Search period end: 22 April 2021 00:00
Orbit: 1102 x 1105 km, 123.0° (Epoch: 05 April)

Date Brightness Start Highest point End Pass type
(mag) Time Alt. Az. Time Alt. Az. Time Alt. Az.
12 Apr 3.4 19:51:13 17° ESE 19:56:20 65° NE 20:02:48 10° NW visible
12 Apr 3.9 21:38:34 38° SSW 21:39:32 41° SW 21:45:38 10° WNW visible
13 Apr 4.0 19:07:48 10° E 19:13:52 42° NNE 19:19:56 10° NW visible
13 Apr 3.2 20:54:00 40° SE 20:56:35 76° SW 21:03:09 10° NW visible
13 Apr 5.0 22:41:21 19° WSW 22:41:21 19° WSW 22:44:48 10° WNW visible
14 Apr 3.4 20:09:25 21° ESE 20:13:53 65° NE 20:20:21 10° NW visible
14 Apr 3.9 21:56:46 40° SW 21:57:05 40° SW 22:03:11 10° WNW visible
15 Apr 4.0 19:25:20 10° E 19:31:25 42° NNE 19:37:29 10° NW visible
15 Apr 3.2 21:12:10 48° SSE 21:14:08 76° SW 21:20:42 10° NW visible
15 Apr 5.1 22:59:30 18° WSW 22:59:30 18° WSW 23:02:20 10° WNW visible
16 Apr 3.4 20:27:33 26° ESE 20:31:26 65° NNE 20:37:54 10° NW visible
16 Apr 3.9 22:14:53 40° SW 22:14:53 40° SW 22:20:44 10° WNW visible
17 Apr 4.0 19:42:55 10° E 19:48:57 43° NNE 19:55:02 10° NW visible
17 Apr 3.2 21:30:16 56° SSE 21:31:42 75° SW 21:38:15 10° NW visible
17 Apr 5.1 23:17:36 16° W 23:17:36 16° W 23:19:52 10° WNW visible
18 Apr 3.4 20:45:37 30° ESE 20:48:59 66° NE 20:55:28 10° NW visible
18 Apr 4.0 22:32:57 38° WSW 22:32:57 38° WSW 22:38:16 10° WNW visible
19 Apr 4.0 20:00:57 12° E 20:06:30 43° NNE 20:12:35 10° NW visible
19 Apr 3.1 21:48:17 64° SSE 21:49:15 75° SW 21:55:48 10° NW visible
19 Apr 5.2 23:35:37 15° W 23:35:37 15° W 23:37:24 10° WNW visible
20 Apr 4.5 19:18:36 10° ENE 19:24:13 32° NNE 19:29:50 10° NW visible
20 Apr 3.4 21:03:37 35° ESE 21:06:32 66° NE 21:13:00 10° NW visible
20 Apr 4.1 22:50:57 36° WSW 22:50:57 36° WSW 22:55:49 10° WNW visible
21 Apr 4.0 20:18:56 15° E 20:24:03 43° NNE 20:30:09 10° NW visible
21 Apr 3.1 22:06:16 70° S 22:06:47 74° SW 22:13:22 10° NW visible
21 Apr 5.3 23:53:35 14° W 23:53:35 14° W 23:54:56 10° WNW visible
